Weather History for Lancaster, OH

Change the Weather History Date:

Saturday, September 28, 2013

  Actual Average Record
Temperature  
Mean Temperature 58 °F -  
Max Temperature 78 °F 71 °F 92 °F (1959)
Min Temperature 42 °F 45 °F 28 °F (1969)
Degree Days  
Heating Degree Days 6    
Growing Degree Days 8 (Base 50)    
Moisture  
Dew Point 47 °F    
Average Humidity 87    
Maximum Humidity 100    
Minimum Humidity 43    
Precipitation  
Precipitation 0.00 in - - ()
Sea Level Pressure  
Sea Level Pressure 30.17 in    
Wind  
Wind Speed 1 mph (SSE)    
Max Wind Speed 8 mph    
Max Gust Speed -    
Visibility 4 miles    
Events Fog    
Averages and records for this station are not official NWS values.
T = Trace of Precipitation, MM = Missing Value Source: NWS Daily Summary

Daily Weather History Graph

Daily Weather History Graph

Search for Another Location

Airport:

Trip Planner

Search our weather history database for the weather conditions in past years. The results will help you decide how hot, cold, wet, or windy it might be!

Date:

Astronomy

Sep. 28, 2013 Rise Set
Actual Time 7:24 AM EDT 7:17 PM EDT
Civil Twilight 6:57 AM EDT 7:44 PM EDT
Nautical Twilight 6:25 AM EDT 8:15 PM EDT
Astronomical Twilight 5:54 AM EDT 8:47 PM EDT
Moon 1:11 AM EDT (9/28) 3:35 PM EDT (9/28)
Length of Visible Light 12h 47m
Length of Day
11h 53m
Last Quarter, 36% of the Moon is Illuminated
Sep 28
Last Quarter
Oct 4
New
Oct 11
First Quarter
Oct 18
Full
Oct 26
Last Quarter

Hourly Weather History & Observations

Time (EDT) Temp. Dew Point Humidity Pressure Visibility Wind Dir Wind Speed Gust Speed Precip Events Conditions
12:53 AM 48.0 °F 46.0 °F 93% 30.16 in 8.0 mi Calm Calm - N/A   Clear
1:51 AM 46.4 °F 46.4 °F 100% 30.17 in 2.0 mi Calm Calm - N/A   Clear
1:53 AM 46.9 °F 46.0 °F 97% 30.16 in 2.0 mi Calm Calm - N/A   Clear
2:00 AM 46.4 °F 46.4 °F 100% 30.17 in 1.8 mi Calm Calm - N/A   Clear
2:06 AM 48.2 °F 46.4 °F 93% 30.17 in 0.8 mi Calm Calm - N/A   Clear
2:17 AM 46.4 °F 46.4 °F 100% 30.17 in 0.2 mi Calm Calm - N/A Fog Fog
2:26 AM 48.2 °F 46.4 °F 93% 30.17 in 1.5 mi Calm Calm - N/A   Partly Cloudy
2:28 AM 48.2 °F 46.4 °F 93% 30.17 in 2.5 mi Calm Calm - N/A   Partly Cloudy
2:36 AM 46.4 °F 46.4 °F 100% 30.17 in 4.0 mi Calm Calm - N/A   Partly Cloudy
2:47 AM 46.4 °F 44.6 °F 93% 30.17 in 2.0 mi Calm Calm - N/A   Clear
2:49 AM 46.4 °F 44.6 °F 93% 30.17 in 1.8 mi Calm Calm - N/A   Clear
2:53 AM 46.9 °F 45.0 °F 93% 30.16 in 1.2 mi Calm Calm - N/A   Clear
3:04 AM 46.4 °F 44.6 °F 93% 30.17 in 0.8 mi Calm Calm - N/A   Clear
3:22 AM 46.4 °F 44.6 °F 93% 30.17 in 1.2 mi Calm Calm - N/A   Clear
3:25 AM 46.4 °F 44.6 °F 93% 30.17 in 4.0 mi Calm Calm - N/A   Clear
3:42 AM 46.4 °F 44.6 °F 93% 30.17 in 1.8 mi Calm Calm - N/A   Clear
3:46 AM 44.6 °F 44.6 °F 100% 30.17 in 0.8 mi Calm Calm - N/A   Clear
3:53 AM 45.0 °F 44.1 °F 97% 30.16 in 0.5 mi Calm Calm - N/A Fog Fog
4:32 AM 44.6 °F 44.6 °F 100% 30.17 in 0.5 mi Calm Calm - N/A Fog Fog
4:38 AM 44.6 °F 44.6 °F 100% 30.17 in 1.2 mi Calm Calm - N/A   Scattered Clouds
4:51 AM 46.4 °F 44.6 °F 93% 30.17 in 0.8 mi Calm Calm - N/A   Mist
4:53 AM 46.0 °F 45.0 °F 96% 30.17 in 0.8 mi Calm Calm - N/A   Mist
5:26 AM 44.6 °F 44.6 °F 100% 30.18 in 1.5 mi Calm Calm - N/A   Partly Cloudy
5:28 AM 44.6 °F 44.6 °F 100% 30.18 in 4.0 mi Calm Calm - N/A   Partly Cloudy
5:46 AM 44.6 °F 44.6 °F 100% 30.19 in 2.5 mi Calm Calm - N/A   Clear
5:53 AM 45.0 °F 43.0 °F 93% 30.18 in 3.0 mi Calm Calm - N/A   Clear
5:55 AM 44.6 °F 42.8 °F 93% 30.18 in 2.0 mi Calm Calm - N/A   Clear
6:01 AM 44.6 °F 42.8 °F 93% 30.19 in 1.0 mi Calm Calm - N/A   Mist
6:09 AM 44.6 °F 42.8 °F 93% 30.19 in 0.5 mi Calm Calm - N/A Fog Fog
6:46 AM 42.8 °F 42.8 °F 100% 30.19 in 1.2 mi Calm Calm - N/A   Partly Cloudy
6:53 AM 44.1 °F 43.0 °F 96% 30.19 in 0.8 mi Calm Calm - N/A   Clear
7:02 AM 44.6 °F 42.8 °F 93% 30.19 in 1.5 mi Calm Calm - N/A   Clear
7:04 AM 44.6 °F 42.8 °F 93% 30.20 in 2.5 mi Calm Calm - N/A   Partly Cloudy
7:12 AM 44.6 °F 42.8 °F 93% 30.20 in 3.0 mi Calm Calm - N/A   Partly Cloudy
7:29 AM 44.6 °F 42.8 °F 93% 30.20 in 2.0 mi Calm Calm - N/A   Partly Cloudy
7:37 AM 44.6 °F 42.8 °F 93% 30.20 in 1.2 mi Calm Calm - N/A   Clear
7:41 AM 44.6 °F 42.8 °F 93% 30.21 in 0.8 mi Calm Calm - N/A   Clear
7:53 AM 45.0 °F 43.0 °F 93% 30.22 in 0.5 mi Calm Calm - N/A Fog Fog
7:58 AM 44.6 °F 44.6 °F 100% 30.21 in 1.2 mi Calm Calm - N/A   Clear
8:08 AM 46.4 °F 46.4 °F 100% 30.21 in 2.5 mi Calm Calm - N/A   Clear
8:19 AM 48.2 °F 46.4 °F 93% 30.21 in 4.0 mi Calm Calm - N/A   Clear
8:53 AM 53.1 °F 51.1 °F 93% 30.22 in 7.0 mi Calm Calm - N/A   Clear
9:53 AM 60.1 °F 54.0 °F 80% 30.22 in 10.0 mi SE 5.8 mph - N/A   Clear
10:53 AM 66.0 °F 54.0 °F 65% 30.22 in 10.0 mi Variable 3.5 mph - N/A   Clear
11:53 AM 72.0 °F 55.0 °F 55% 30.21 in 10.0 mi SE 4.6 mph - N/A   Clear
12:53 PM 75.0 °F 51.1 °F 43% 30.20 in 10.0 mi Variable 4.6 mph - N/A   Clear
1:53 PM 75.9 °F 52.0 °F 43% 30.17 in 10.0 mi Variable 6.9 mph - N/A   Clear
2:53 PM 75.9 °F 52.0 °F 43% 30.15 in 10.0 mi SE 8.1 mph - N/A   Clear
3:53 PM 75.9 °F 52.0 °F 43% 30.13 in 10.0 mi SSW 5.8 mph - N/A   Clear
4:53 PM 75.9 °F 53.1 °F 45% 30.12 in 10.0 mi ESE 4.6 mph - N/A   Clear
5:53 PM 73.9 °F 53.1 °F 48% 30.12 in 10.0 mi South 6.9 mph - N/A   Clear
6:53 PM 70.0 °F 54.0 °F 57% 30.12 in 10.0 mi SSE 5.8 mph - N/A   Clear
7:53 PM 62.1 °F 54.0 °F 75% 30.12 in 10.0 mi ESE 3.5 mph - N/A   Clear
8:53 PM 57.9 °F 53.1 °F 84% 30.12 in 10.0 mi Calm Calm - N/A   Clear
9:53 PM 55.0 °F 53.1 °F 93% 30.12 in 10.0 mi ESE 3.5 mph - N/A   Clear
10:53 PM 53.1 °F 52.0 °F 96% 30.11 in 7.0 mi WSW 3.5 mph - N/A   Clear
11:53 PM 52.0 °F 50.0 °F 93% 30.10 in 4.0 mi Calm Calm - N/A   Clear